| time (UTC) | temp C | wind direction | speed KPH | gust KPH | rain 1hr cm | rain 24hr cm | rain mn cm | humidity % | barometer mb |
| 20260505023358 | 13 | 331 | 9.7 | 16.1 | 0.00 | 0.00 | 0.00 | 84 | 1012.5 |
| 20260505022840 | 14 | 321 | 6.4 | 19.3 | 0.00 | 0.00 | 0.00 | 83 | 1012.6 |
| 20260505022324 | 14 | 322 | 8.0 | 19.3 | 0.00 | 0.00 | 0.00 | 83 | 1012.5 |
| 20260505021836 | 15 | 319 | 8.0 | 16.1 | 0.00 | 0.00 | 0.00 | 82 | 1012.5 |
| 20260505021323 | 15 | 319 | 8.0 | 16.1 | 0.00 | 0.00 | 0.00 | 83 | 1012.5 |
| 20260505020825 | 15 | 317 | 8.0 | 16.1 | 0.00 | 0.00 | 0.00 | 82 | 1012.5 |
| 20260505020334 | 15 | 331 | 9.7 | 17.7 | 0.00 | 0.00 | 0.00 | 82 | 1012.4 |
| 20260505015859 | 15 | 298 | 8.0 | 17.7 | 0.00 | 0.00 | 0.00 | 82 | 1012.4 |
| 20260505015343 | 15 | 293 | 11.3 | 19.3 | 0.00 | 0.00 | 0.00 | 81 | 1012.5 |
| 20260505014825 | 15 | 310 | 9.7 | 19.3 | 0.00 | 0.00 | 0.00 | 81 | 1012.4 |
| 20260505014331 | 15 | 321 | 9.7 | 19.3 | 0.00 | 0.00 | 0.00 | 81 | 1012.5 |
| 20260505013830 | 15 | 310 | 9.7 | 16.1 | 0.00 | 0.00 | 0.00 | 80 | 1012.4 |
| 20260505013333 | 15 | 318 | 9.7 | 20.9 | 0.00 | 0.00 | 0.00 | 80 | 1012.4 |
| 20260505012820 | 15 | 313 | 9.7 | 17.7 | 0.00 | 0.00 | 0.00 | 81 | 1012.3 |
| 20260505012328 | 15 | 294 | 9.7 | 24.1 | 0.00 | 0.00 | 0.00 | 81 | 1012.4 |
| 20260505011834 | 15 | 312 | 12.9 | 24.1 | 0.00 | 0.00 | 0.00 | 80 | 1012.4 |
| 20260505011328 | 16 | 288 | 11.3 | 24.1 | 0.00 | 0.00 | 0.00 | 80 | 1012.5 |
| 20260505010825 | 16 | 323 | 12.9 | 19.3 | 0.00 | 0.00 | 0.00 | 80 | 1012.5 |
| 20260505010329 | 16 | 306 | 11.3 | 17.7 | 0.00 | 0.00 | 0.00 | 79 | 1012.5 |
| 20260505005834 | 16 | 291 | 8.0 | 19.3 | 0.00 | 0.00 | 0.00 | 80 | 1012.5 |
| 20260505005324 | 16 | 334 | 9.7 | 20.9 | 0.00 | 0.00 | 0.00 | 79 | 1012.6 |
| 20260505004830 | 16 | 314 | 12.9 | 25.7 | 0.00 | 0.00 | 0.00 | 79 | 1012.5 |
| 20260505004353 | 16 | 311 | 9.7 | 25.7 | 0.00 | 0.00 | 0.00 | 79 | 1012.5 |
| 20260505003837 | 16 | 323 | 11.3 | 24.1 | 0.00 | 0.00 | 0.00 | 79 | 1012.4 |
| 20260505003320 | 16 | 306 | 12.9 | 29.0 | 0.00 | 0.00 | 0.00 | 79 | 1012.4 |
| 20260505002825 | 16 | 315 | 11.3 | 29.0 | 0.00 | 0.00 | 0.00 | 78 | 1012.3 |
| 20260505002332 | 16 | 296 | 12.9 | 22.5 | 0.00 | 0.00 | 0.00 | 78 | 1012.3 |
| 20260505001836 | 16 | 314 | 11.3 | 24.1 | 0.00 | 0.00 | 0.00 | 78 | 1012.3 |
| 20260505001329 | 16 | 303 | 9.7 | 24.1 | 0.00 | 0.00 | 0.00 | 78 | 1012.2 |
| 20260505000820 | 17 | 309 | 11.3 | 19.3 | 0.00 | 0.00 | 0.00 | 79 | 1012.3 |
| 20260505000328 | 16 | 315 | 11.3 | 20.9 | 0.00 | 0.00 | 0.00 | 79 | 1012.3 |
| 20260504235819 | 16 | 332 | 9.7 | 25.7 | 0.00 | 0.00 | 0.00 | 79 | 1012.3 |
| 20260504235353 | 17 | 321 | 14.5 | 27.4 | 0.00 | 0.00 | 0.00 | 78 | 1012.3 |
| 20260504234833 | 17 | 319 | 11.3 | 24.1 | 0.00 | 0.00 | 0.00 | 78 | 1012.3 |
| 20260504234318 | 17 | 315 | 9.7 | 24.1 | 0.00 | 0.00 | 0.00 | 78 | 1012.3 |
| 20260504233835 | 17 | 315 | 11.3 | 24.1 | 0.00 | 0.00 | 0.00 | 78 | 1012.2 |
| 20260504233325 | 17 | 295 | 11.3 | 27.4 | 0.00 | 0.00 | 0.00 | 78 | 1012.2 |
| 20260504232336 | 17 | 309 | 12.9 | 24.1 | 0.00 | 0.00 | 0.00 | 77 | 1012.2 |
| 20260504231859 | 17 | 311 | 12.9 | 25.7 | 0.00 | 0.00 | 0.00 | 76 | 1012.2 |
| 20260504231320 | 17 | 291 | 14.5 | 25.7 | 0.00 | 0.00 | 0.00 | 75 | 1012.2 |
| 20260504230823 | 17 | 317 | 12.9 | 25.7 | 0.00 | 0.00 | 0.00 | 76 | 1012.2 |
| 20260504230333 | 17 | 304 | 12.9 | 24.1 | 0.00 | 0.00 | 0.00 | 76 | 1012.2 |
| 20260504225823 | 17 | 321 | 12.9 | 25.7 | 0.00 | 0.00 | 0.00 | 75 | 1012.2 |
| 20260504225325 | 17 | 321 | 14.5 | 25.7 | 0.00 | 0.00 | 0.00 | 76 | 1012.2 |
| 20260504224817 | 17 | 319 | 12.9 | 24.1 | 0.00 | 0.00 | 0.00 | 75 | 1012.4 |
| 20260504224358 | 17 | 306 | 16.1 | 24.1 | 0.00 | 0.00 | 0.00 | 74 | 1012.3 |
| 20260504223844 | 18 | 328 | 9.7 | 24.1 | 0.00 | 0.00 | 0.00 | 76 | 1012.2 |
| 20260504223325 | 18 | 336 | 11.3 | 24.1 | 0.00 | 0.00 | 0.00 | 75 | 1012.2 |
| 20260504222832 | 18 | 317 | 9.7 | 20.9 | 0.00 | 0.00 | 0.00 | 75 | 1012.3 |
| 20260504222322 | 18 | 344 | 11.3 | 20.9 | 0.00 | 0.00 | 0.00 | 75 | 1012.4 |
| 20260504221831 | 18 | 278 | 9.7 | 25.7 | 0.00 | 0.00 | 0.00 | 75 | 1012.5 |
| 20260504221320 | 18 | 311 | 12.9 | 25.7 | 0.00 | 0.00 | 0.00 | 74 | 1012.5 |
| 20260504220858 | 18 | 309 | 9.7 | 27.4 | 0.00 | 0.00 | 0.00 | 75 | 1012.5 |
| 20260504220326 | 18 | 325 | 11.3 | 27.4 | 0.00 | 0.00 | 0.00 | 74 | 1012.5 |
| 20260504215829 | 18 | 313 | 9.7 | 20.9 | 0.00 | 0.00 | 0.00 | 75 | 1012.5 |
| 20260504215331 | 18 | 307 | 11.3 | 22.5 | 0.00 | 0.00 | 0.00 | 75 | 1012.5 |
| 20260504214836 | 18 | 331 | 11.3 | 22.5 | 0.00 | 0.00 | 0.00 | 74 | 1012.6 |
| 20260504214342 | 18 | 313 | 11.3 | 25.7 | 0.00 | 0.00 | 0.00 | 74 | 1012.6 |
| 20260504213837 | 18 | 304 | 11.3 | 25.7 | 0.00 | 0.00 | 0.00 | 76 | 1012.5 |
| 20260504213356 | 18 | 321 | 14.5 | 20.9 | 0.00 | 0.00 | 0.00 | 75 | 1012.6 |
| 20260504212853 | 18 | 310 | 12.9 | 19.3 | 0.00 | 0.00 | 0.00 | 74 | 1012.6 |
| 20260504212322 | 18 | 315 | 9.7 | 20.9 | 0.00 | 0.00 | 0.00 | 75 | 1012.7 |
| 20260504211823 | 18 | 317 | 8.0 | 19.3 | 0.00 | 0.00 | 0.00 | 74 | 1012.6 |
| 20260504211334 | 18 | 298 | 9.7 | 17.7 | 0.00 | 0.00 | 0.00 | 74 | 1012.6 |
| 20260504210821 | 18 | 340 | 9.7 | 17.7 | 0.00 | 0.00 | 0.00 | 74 | 1012.6 |
| 20260504210328 | 18 | 288 | 11.3 | 17.7 | 0.00 | 0.00 | 0.00 | 73 | 1012.7 |
| 20260504205832 | 18 | 297 | 9.7 | 16.1 | 0.00 | 0.00 | 0.00 | 75 | 1012.6 |
| 20260504205352 | 18 | 298 | 9.7 | 17.7 | 0.00 | 0.00 | 0.00 | 73 | 1012.5 |
| 20260504204828 | 18 | 297 | 9.7 | 17.7 | 0.00 | 0.00 | 0.00 | 72 | 1012.6 |
| 20260504204336 | 18 | 336 | 8.0 | 17.7 | 0.00 | 0.00 | 0.00 | 74 | 1012.7 |
| 20260504203836 | 18 | 317 | 8.0 | 16.1 | 0.00 | 0.00 | 0.00 | 77 | 1012.7 |
| 20260504203326 | 18 | 343 | 8.0 | 17.7 | 0.00 | 0.00 | 0.00 | 76 | 1012.7 |
| 20260504202852 | 18 | 321 | 6.4 | 17.7 | 0.00 | 0.00 | 0.00 | 76 | 1012.8 |
| 20260504202333 | 18 | 331 | 9.7 | 16.1 | 0.00 | 0.00 | 0.00 | 75 | 1012.8 |
| 20260504201830 | 18 | 343 | 4.8 | 17.7 | 0.00 | 0.00 | 0.00 | 77 | 1012.0 |
| 20260504201326 | 17 | 327 | 11.3 | 19.3 | 0.00 | 0.00 | 0.00 | 77 | 1012.9 |
| 20260504200815 | 17 | 298 | 9.7 | 19.3 | 0.00 | 0.00 | 0.00 | 77 | 1013.0 |
| 20260504200337 | 17 | 315 | 11.3 | 19.3 | 0.00 | 0.00 | 0.00 | 77 | 1013.1 |
| 20260504195843 | 17 | 321 | 8.0 | 20.9 | 0.00 | 0.00 | 0.00 | 76 | 1013.1 |
| 20260504195347 | 17 | 309 | 9.7 | 17.7 | 0.00 | 0.00 | 0.00 | 76 | 1013.1 |
| 20260504194828 | 17 | 317 | 6.4 | 17.7 | 0.00 | 0.00 | 0.00 | 76 | 1013.1 |
| 20260504194334 | 17 | 332 | 8.0 | 17.7 | 0.00 | 0.00 | 0.00 | 77 | 1013.1 |
| 20260504193847 | 17 | 327 | 6.4 | 17.7 | 0.00 | 0.00 | 0.00 | 78 | 1013.1 |
| 20260504193325 | 17 | 319 | 8.0 | 17.7 | 0.00 | 0.00 | 0.00 | 77 | 1013.2 |
| 20260504192849 | 17 | 332 | 4.8 | 16.1 | 0.00 | 0.00 | 0.00 | 79 | 1013.2 |
| 20260504192334 | 17 | 346 | 6.4 | 16.1 | 0.00 | 0.00 | 0.00 | 78 | 1013.2 |
| 20260504191837 | 17 | 5 | 6.4 | 17.7 | 0.00 | 0.00 | 0.00 | 79 | 1013.2 |
| 20260504191322 | 17 | 316 | 4.8 | 17.7 | 0.00 | 0.00 | 0.00 | 79 | 1013.3 |
| 20260504190858 | 16 | 342 | 3.2 | 16.1 | 0.00 | 0.00 | 0.00 | 80 | 1013.4 |
| 20260504190326 | 16 | 360 | 9.7 | 16.1 | 0.00 | 0.00 | 0.00 | 80 | 1013.4 |
| 20260504185851 | 16 | 13 | 4.8 | 14.5 | 0.00 | 0.00 | 0.00 | 80 | 1013.5 |
| 20260504185322 | 16 | 330 | 3.2 | 14.5 | 0.00 | 0.00 | 0.00 | 82 | 1013.5 |
| 20260504184825 | 16 | 16 | 6.4 | 14.5 | 0.00 | 0.00 | 0.00 | 82 | 1013.4 |
| 20260504184338 | 15 | 290 | 3.2 | 11.3 | 0.00 | 0.00 | 0.00 | 84 | 1013.6 |
| 20260504183819 | 15 | 279 | 6.4 | 11.3 | 0.00 | 0.00 | 0.00 | 84 | 1013.6 |
| 20260504183357 | 15 | 279 | 4.8 | 12.9 | 0.00 | 0.00 | 0.00 | 84 | 1013.6 |
| 20260504182839 | 15 | 278 | 8.0 | 11.3 | 0.00 | 0.00 | 0.00 | 83 | 1013.7 |
| 20260504182322 | 14 | 278 | 1.6 | 11.3 | 0.00 | 0.00 | 0.00 | 84 | 1013.7 |
| 20260504181828 | 14 | 278 | 4.8 | 11.3 | 0.00 | 0.00 | 0.00 | 83 | 1013.7 |
| 20260504181336 | 14 | 278 | 4.8 | 9.7 | 0.00 | 0.00 | 0.00 | 84 | 1013.8 |
| 20260504180819 | 14 | 274 | 1.6 | 11.3 | 0.00 | 0.00 | 0.00 | 84 | 1013.8 |
| 20260504180330 | 14 | 273 | 3.2 | 8.0 | 0.00 | 0.00 | 0.00 | 85 | 1013.9 |
| 20260504175820 | 14 | 271 | 3.2 | 9.7 | 0.00 | 0.00 | 0.00 | 85 | 1013.8 |
| 20260504175329 | 13 | 270 | 6.4 | 9.7 | 0.00 | 0.00 | 0.00 | 85 | 1013.7 |
| 20260504174834 | 13 | 269 | 0.0 | 1.6 | 0.00 | 0.00 | 0.00 | 86 | 1013.8 |
| 20260504174319 | 13 | 269 | 0.0 | 1.6 | 0.00 | 0.00 | 0.00 | 86 | 1013.7 |
| 20260504173824 | 13 | 269 | 0.0 | 1.6 | 0.00 | 0.00 | 0.00 | 87 | 1013.7 |
| 20260504173359 | 13 | 269 | 0.0 | 1.6 | 0.00 | 0.00 | 0.00 | 88 | 1013.7 |
| 20260504172822 | 13 | 269 | 0.0 | 0.0 | 0.00 | 0.00 | 0.00 | 88 | 1013.8 |
| 20260504172321 | 13 | 269 | 0.0 | 0.0 | 0.00 | 0.00 | 0.00 | 88 | 1013.7 |
| 20260504171828 | 13 | 269 | 0.0 | 1.6 | 0.00 | 0.00 | 0.00 | 89 | 1013.7 |
| 20260504171334 | 12 | 269 | 0.0 | 4.8 | 0.00 | 0.00 | 0.00 | 89 | 1013.6 |
| 20260504170824 | 12 | 269 | 1.6 | 4.8 | 0.00 | 0.00 | 0.00 | 89 | 1013.6 |
| 20260504170330 | 12 | 269 | 0.0 | 1.6 | 0.00 | 0.00 | 0.00 | 89 | 1013.6 |
| 20260504160330 | 12 | 269 | 3.2 | 8.0 | 0.00 | 0.00 | 0.00 | 91 | 1013.3 |
| 20260504150827 | 12 | 267 | 6.4 | 11.3 | 0.00 | 0.00 | 0.00 | 92 | 1012.9 |
| 20260504150333 | 12 | 269 | 9.7 | 14.5 | 0.00 | 0.00 | 0.00 | 92 | 1012.9 |
| 20260504141332 | 12 | 287 | 9.7 | 16.1 | 0.00 | 0.00 | 0.00 | 92 | 1012.6 |
| 20260504140830 | 12 | 288 | 9.7 | 12.9 | 0.00 | 0.00 | 0.00 | 91 | 1012.5 |
| 20260504140322 | 12 | 315 | 4.8 | 14.5 | 0.00 | 0.00 | 0.00 | 92 | 1012.5 |
| 20260504130822 | 12 | 321 | 4.8 | 16.1 | 0.00 | 0.00 | 0.00 | 92 | 1011.8 |
| 20260504130326 | 12 | 323 | 6.4 | 16.1 | 0.00 | 0.00 | 0.00 | 92 | 1011.7 |
| 20260504110343 | 12 | 298 | 8.0 | 14.5 | 0.00 | 0.00 | 0.00 | 93 | 1011.0 |
| 20260504100331 | 11 | 329 | 3.2 | 12.9 | 0.00 | 0.00 | 0.00 | 94 | 1010.7 |
| 20260504081830 | 13 | 12 | 11.3 | 25.7 | 0.00 | 0.00 | 0.00 | 89 | 1009.9 |
| 20260504081350 | 13 | 9 | 11.3 | 25.7 | 0.00 | 0.00 | 0.00 | 89 | 1009.8 |
| 20260504080834 | 13 | 9 | 12.9 | 24.1 | 0.00 | 0.00 | 0.00 | 88 | 1009.7 |
| 20260504080339 | 13 | 20 | 14.5 | 24.1 | 0.00 | 0.00 | 0.00 | 87 | 1009.7 |
| 20260504070330 | 17 | 273 | 1.6 | 4.8 | 0.00 | 0.00 | 0.00 | 77 | 1008.8 |
| 20260504050324 | 18 | 273 | 0.0 | 3.2 | 0.00 | 0.00 | 0.00 | 74 | 1008.4 |
| 20260504045823 | 18 | 273 | 0.0 | 4.8 | 0.00 | 0.00 | 0.00 | 74 | 1008.4 |
| 20260504045352 | 18 | 273 | 1.6 | 4.8 | 0.00 | 0.00 | 0.00 | 74 | 1008.4 |
| 20260504044827 | 19 | 273 | 0.0 | 3.2 | 0.00 | 0.00 | 0.00 | 73 | 1008.3 |
| 20260504044318 | 19 | 273 | 0.0 | 1.6 | 0.00 | 0.00 | 0.00 | 71 | 1008.2 |
| 20260504043824 | 20 | 273 | 0.0 | 1.6 | 0.00 | 0.00 | 0.00 | 70 | 1008.2 |
| 20260504043344 | 20 | 273 | 0.0 | 0.0 | 0.00 | 0.00 | 0.00 | 70 | 1008.2 |
| 20260504042837 | 20 | 273 | 0.0 | 0.0 | 0.00 | 0.00 | 0.00 | 70 | 1008.2 |
| 20260504042320 | 20 | 273 | 0.0 | 0.0 | 0.00 | 0.00 | 0.00 | 69 | 1008.1 |
| 20260504041819 | 20 | 273 | 0.0 | 1.6 | 0.00 | 0.00 | 0.00 | 68 | 1008.0 |
| 20260504041346 | 21 | 273 | 0.0 | 1.6 | 0.00 | 0.00 | 0.00 | 67 | 1008.0 |
| 20260504040832 | 21 | 273 | 0.0 | 0.0 | 0.00 | 0.00 | 0.00 | 65 | 1007.9 |
| 20260504040351 | 21 | 273 | 0.0 | 3.2 | 0.00 | 0.00 | 0.00 | 64 | 1007.8 |
| 20260504035823 | 21 | 273 | 0.0 | 1.6 | 0.00 | 0.00 | 0.00 | 62 | 1007.8 |
| 20260504035400 | 22 | 273 | 0.0 | 3.2 | 0.00 | 0.00 | 0.00 | 62 | 1007.7 |
| 20260504034837 | 22 | 273 | 0.0 | 6.4 | 0.00 | 0.00 | 0.00 | 60 | 1007.6 |
| 20260504034339 | 22 | 273 | 0.0 | 6.4 | 0.00 | 0.00 | 0.00 | 59 | 1007.6 |
| 20260504033824 | 22 | 273 | 0.0 | 4.8 | 0.00 | 0.00 | 0.00 | 58 | 1007.5 |
| 20260504033330 | 23 | 273 | 0.0 | 1.6 | 0.00 | 0.00 | 0.00 | 57 | 1007.4 |
| 20260504032823 | 23 | 273 | 0.0 | 4.8 | 0.00 | 0.00 | 0.00 | 56 | 1007.4 |
| 20260504032358 | 23 | 273 | 0.0 | 6.4 | 0.00 | 0.00 | 0.00 | 56 | 1007.3 |
| 20260504031851 | 23 | 273 | 0.0 | 6.4 | 0.00 | 0.00 | 0.00 | 55 | 1007.2 |
| 20260504031332 | 24 | 272 | 0.0 | 6.4 | 0.00 | 0.00 | 0.00 | 54 | 1007.3 |
| 20260504030821 | 25 | 272 | 3.2 | 6.4 | 0.00 | 0.00 | 0.00 | 51 | 1007.1 |
| 20260504030323 | 26 | 272 | 1.6 | 11.3 | 0.00 | 0.00 | 0.00 | 48 | 1007.1 |
| 20260504025827 | 26 | 272 | 4.8 | 11.3 | 0.00 | 0.00 | 0.00 | 46 | 1007.1 |
| 20260504025320 | 26 | 272 | 1.6 | 8.0 | 0.00 | 0.00 | 0.00 | 48 | 1007.0 |
| 20260504024826 | 27 | 272 | 0.0 | 11.3 | 0.00 | 0.00 | 0.00 | 46 | 1007.0 |
| 20260504024323 | 27 | 271 | 3.2 | 8.0 | 0.00 | 0.00 | 0.00 | 45 | 1007.0 |
| 20260504023832 | 27 | 271 | 3.2 | 8.0 | 0.00 | 0.00 | 0.00 | 45 | 1006.9 |